NOAA 15

Last updated on Wed Jul 09 2025 00:02:20 GMT+0000 (Coordinated Universal Time)

1 25338U 98030A 25189.55970295 .00000169 00000+0 87061-4 0 9999 2 25338 98.5339 213.9917 0008988 275.0091 85.0063 14.26993609412287
UTC large
Height (km)
Speed (km/s)
/
Latitude / Longitude
Inclination (degrees)
Orbital Period (minutes)
Azimuth
Elevation
Range (km)
Doppler Factor

Next 0 passes for location: London (51.5072 / 0.1276)

Sorry there are no passes over London.